Corpus Christi, TX

6:29 AM CDT on August 18, 2017 (GMT -0500)
Corpus Christi International

Weather History for KCRP - February, 2013

Change the Weather History Date:

Saturday, February 16, 2013

  Actual Average Record
Temperature  
Mean Temperature 57 °F 61 °F  
Max Temperature 69 °F 71 °F 89 °F (1982)
Min Temperature 44 °F 51 °F 20 °F (1895)
Degree Days  
Heating Degree Days 8 6  
Month to date heating degree days 32 112  
Since 1 July heating degree days 415 739  
Cooling Degree Days 0 2  
Month to date cooling degree days 46 25  
Year to date cooling degree days 113 55  
Growing Degree Days 6 (Base 50)    
Moisture  
Dew Point 29 °F    
Average Humidity 39    
Maximum Humidity 60    
Minimum Humidity 18    
Precipitation  
Precipitation 0.00 in 0.08 in 2.28 in (1965)
Month to date precipitation 0.43 1.05  
Year to date precipitation 1.68 2.59  
Snow  
Snow 0.00 in - - ()
Month to date snowfall 0.0  
Since 1 July snowfall 0.0  
Snow Depth 0.00 in    
Sea Level Pressure  
Sea Level Pressure 30.37 in    
Wind  
Wind Speed 11 mph (North)    
Max Wind Speed 26 mph    
Max Gust Speed 32 mph    
Visibility 10 miles    
Events      
T = Trace of Precipitation, MM = Missing Value Source: NWS Daily Summary

Daily Weather History Graph

Daily Weather History Graph

Search for Another Location

Airport or City:

Trip Planner

Search our weather history database for the weather conditions in past years. The results will help you decide how hot, cold, wet, or windy it might be!

Date:

Astronomy

Feb. 16, 2013 Rise Set
Actual Time 7:06 AM CST 6:22 PM CST
Civil Twilight 6:42 AM CST 6:46 PM CST
Nautical Twilight 6:14 AM CST 7:13 PM CST
Astronomical Twilight 5:47 AM CST 7:40 PM CST
Moon 10:57 AM CST (2/16) No Moon Set
Length of Visible Light 12h 03m
Length of Day
11h 15m
Waxing Crescent, 39% of the Moon is Illuminated
Feb 16
Waxing Crescent
Feb 17
First Quarter
Feb 25
Full
Mar 4
Last Quarter
Mar 11
New

Hourly Weather History & Observations

Time (CST) Temp. Windchill Dew Point Humidity Pressure Visibility Wind Dir Wind Speed Gust Speed Precip Events Conditions
12:51 AM 55.9 °F - 39.9 °F 55% 30.34 in 10.0 mi North 21.9 mph 29.9 mph N/A   Overcast
1:51 AM 55.0 °F - 37.9 °F 53% 30.36 in 10.0 mi North 17.3 mph - N/A   Overcast
2:51 AM 53.1 °F - 36.0 °F 52% 30.36 in 10.0 mi North 17.3 mph - N/A   Mostly Cloudy
3:51 AM 52.0 °F - 34.0 °F 50% 30.38 in 10.0 mi North 12.7 mph - N/A   Mostly Cloudy
4:51 AM 50.0 °F - 28.9 °F 44% 30.40 in 10.0 mi North 12.7 mph - N/A   Partly Cloudy
5:51 AM 46.9 °F - 28.0 °F 48% 30.41 in 10.0 mi North 9.2 mph - N/A   Clear
6:51 AM 44.1 °F 38.6 °F 28.0 °F 53% 30.43 in 10.0 mi North 10.4 mph - N/A   Partly Cloudy
7:51 AM 46.9 °F - 28.0 °F 48% 30.46 in 10.0 mi North 11.5 mph - N/A   Clear
8:51 AM 52.0 °F - 28.0 °F 40% 30.48 in 10.0 mi North 13.8 mph - N/A   Clear
9:51 AM 55.9 °F - 23.0 °F 28% 30.49 in 10.0 mi NNE 16.1 mph - N/A   Clear
10:51 AM 59.0 °F - 24.1 °F 26% 30.49 in 10.0 mi NNE 11.5 mph - N/A   Clear
11:51 AM 62.1 °F - 23.0 °F 22% 30.46 in 10.0 mi North 10.4 mph - N/A   Clear
12:51 PM 64.0 °F - 24.1 °F 22% 30.42 in 10.0 mi Variable 6.9 mph - N/A   Clear
1:51 PM 64.9 °F - 25.0 °F 22% 30.37 in 10.0 mi NW 8.1 mph - N/A   Clear
2:51 PM 68.0 °F - 25.0 °F 20% 30.34 in 10.0 mi North 10.4 mph 17.3 mph N/A   Clear
3:51 PM 68.0 °F - 24.8 °F 20% 30.31 in 10.0 mi NNW 6.9 mph - N/A   Partly Cloudy
4:51 PM 69.8 °F - 24.8 °F 18% 30.30 in 10.0 mi NNW 4.6 mph - N/A   Partly Cloudy
5:51 PM 66.0 °F - 24.1 °F 20% 30.29 in 10.0 mi SSW 8.1 mph - N/A   Clear
6:51 PM 57.9 °F - 33.1 °F 39% 30.30 in 10.0 mi SSE 11.5 mph - N/A   Clear
7:51 PM 55.0 °F - 33.1 °F 43% 30.30 in 10.0 mi SE 8.1 mph - N/A   Clear
8:51 PM 51.1 °F - 33.1 °F 50% 30.31 in 10.0 mi SSE 6.9 mph - N/A   Clear
9:51 PM 48.9 °F - 34.0 °F 56% 30.32 in 10.0 mi SSE 8.1 mph - N/A   Clear
10:51 PM 46.9 °F - 33.1 °F 59% 30.30 in 10.0 mi SSE 8.1 mph - N/A   Clear
11:51 PM 44.1 °F 40.1 °F 32.0 °F 63% 30.29 in 10.0 mi South 6.9 mph - N/A   Clear